Location: Newark
(12.4436°N, 0.6167°W)
Time: 19:25:49
(UTC+00:00)

Transit 2A - Pass Details

Date: 11 December 2019
Orbit: 601 x 958 km, 66.7° (Epoch: 28 January)

Event Time Altitude Azimuth Distance (km) Brightness Sun altitude
Rises 04:22:25 0° 161° (SSE) 3,358 9.8 -26.0°
Reaches altitude 10° 04:26:37 10° 132° (SE) 2,331 9.4 -25.1°
Maximum altitude 04:28:35 12° 110° (ESE) 2,147 9.3 -24.6°
Drops below altitude 10° 04:30:29 10° 88° (E) 2,241 9.3 -24.2°
Sets 04:34:17 0° 57° (ENE) 3,073 9.6 -23.3°
